Date String (YYYY-MM-DD hh:mm:ss) UTC,Instrument flags,absolute air pressure of the measurement (hPa),sample flow rate (lpm),inlet stack bypass flow (lpm),air temperature of the measurement (°C),ambient temperature measured by the external sensor (°C),aerosol sample conditioner tube jacket temperature (°C),OPC LED temperature (°C),internal box temperature (°C),relative humidity of the measurement (%),span deviation,mass concentration of particles derived from Lorenz-Mie calculation of OPC scattering (μg/m³),mass concentration of particles derived from Lorenz-Mie calculation of OPC scattering (μg/m³),mass concentration of particles derived from Lorenz-Mie calculation of OPC scattering (μg/m³)
DateTimeUTC,F1_M11,P_M11,Q1_M11,Q2_M11,T1_M11,T2_M11,T3_M11,T4_M11,T5_M11,U1_M11,ZSPAN_M11,X2_M11,X0_M11,X1_M11
2024-01-22 06:00:00,SystemResetWarning,0822.2,5.00,000.00,021.7,020.6,000.0,030.1,023.1,15.5,0004.5,0004.40,0007.47,0004.27
2024-01-22 06:01:00,SystemResetWarning,0822.2,5.00,000.00,021.7,020.6,000.0,030.1,023.1,15.5,0004.6,0004.47,0007.52,0004.33
2024-01-22 06:02:00,SystemResetWarning,0822.2,5.00,000.00,021.7,020.6,000.0,030.1,023.1,15.5,0004.7,0004.54,0007.56,0004.40
2024-01-22 06:03:00,SystemResetWarning,0822.2,5.00,000.00,021.7,020.6,000.0,030.1,023.1,15.5,0005.0,0004.59,0007.69,0004.45
2024-01-22 06:04:00,SystemResetWarning,0822.2,5.00,000.00,021.7,020.6,000.0,030.1,023.0,15.5,0004.8,0004.63,0007.75,0004.51
2024-01-22 06:05:00,SystemResetWarning,0822.2,5.00,000.00,021.7,020.6,000.0,030.0,023.0,15.5,0004.4,0004.71,0007.97,0004.56
2024-01-22 06:06:00,SystemResetWarning,0822.2,5.00,000.00,021.7,020.6,000.0,030.0,023.0,15.5,0004.3,0004.73,0007.88,0004.57
2024-01-22 06:07:00,SystemResetWarning,0822.2,5.00,000.00,021.7,020.6,000.0,030.0,023.0,15.5,0004.3,0004.73,0007.86,0004.57
2024-01-22 06:08:00,SystemResetWarning,0822.1,5.00,000.00,021.7,020.6,000.0,030.0,023.1,15.5,0004.2,0004.71,0007.84,0004.54
2024-01-22 06:09:00,SystemResetWarning,0822.1,5.00,000.00,021.7,020.6,000.0,030.0,023.1,15.5,0004.4,0004.66,0007.78,0004.50
2024-01-22 06:10:00,SystemResetWarning,0822.1,5.00,000.00,021.7,020.6,000.0,030.0,023.1,15.5,0004.4,0004.65,0007.78,0004.47
2024-01-22 06:11:00,SystemResetWarning,0822.1,5.00,000.00,021.7,020.6,000.0,030.0,023.1,15.6,0004.4,0004.65,0007.77,0004.45
2024-01-22 06:12:00,SystemResetWarning,0822.2,5.00,000.00,021.7,020.6,000.0,030.0,023.0,15.6,0004.4,0004.62,0007.70,0004.41
2024-01-22 06:13:00,SystemResetWarning,0822.2,4.99,000.00,021.7,020.6,000.0,030.0,023.1,15.9,0004.1,0004.55,0007.54,0004.34
2024-01-22 06:14:00,SystemResetWarning,0822.2,5.00,000.00,021.7,020.7,000.0,030.0,023.1,15.8,0003.7,0004.53,0007.48,0004.31
2024-01-22 06:15:00,SystemResetWarning,0822.2,5.01,000.00,021.7,020.7,000.0,030.0,023.0,15.7,0003.1,0004.49,0007.78,0004.26
2024-01-22 06:16:00,SystemResetWarning,0822.2,5.00,000.00,021.7,020.7,000.0,030.0,023.0,15.7,0003.4,0004.43,0007.77,0004.20
2024-01-22 06:17:00,SystemResetWarning,0822.2,4.99,000.00,021.6,020.7,000.0,030.0,023.0,15.8,0003.4,0004.45,0007.82,0004.21
2024-01-22 06:18:00,SystemResetWarning,0822.2,4.99,000.00,021.6,020.7,000.0,030.0,023.0,15.8,0003.6,0004.49,0007.88,0004.25
2024-01-22 06:19:00,SystemResetWarning,0822.2,5.01,000.00,021.6,020.7,000.0,030.0,022.9,15.9,0003.6,0004.56,0007.93,0004.32
2024-01-22 06:20:00,SystemResetWarning,0822.2,5.01,000.00,021.6,020.7,000.0,030.0,022.9,15.8,0003.9,0004.63,0008.03,0004.38
2024-01-22 06:21:00,SystemResetWarning,0822.2,5.01,000.00,021.6,020.7,000.0,030.0,022.9,15.7,0004.1,0004.63,0007.97,0004.40
2024-01-22 06:22:00,SystemResetWarning,0822.2,5.00,000.00,021.6,020.7,000.0,030.0,022.9,15.7,0004.1,0004.60,0007.90,0004.39
2024-01-22 06:23:00,SystemResetWarning,0822.2,4.99,000.00,021.6,020.7,000.0,030.0,022.9,15.7,0004.3,0004.58,0007.84,0004.39
2024-01-22 06:24:00,SystemResetWarning,0822.2,4.99,000.00,021.6,020.7,000.0,030.0,022.9,15.7,0004.4,0004.59,0007.87,0004.40
2024-01-22 06:25:00,SystemResetWarning,0822.2,5.01,000.00,021.6,020.7,000.0,030.0,022.9,15.7,0004.6,0004.60,0007.89,0004.40
2024-01-22 06:26:00,SystemResetWarning,0822.2,5.01,000.00,021.6,020.7,000.0,030.0,022.9,15.7,0004.5,0004.59,0007.70,0004.39
2024-01-22 06:27:00,SystemResetWarning,0822.1,4.99,000.00,021.6,020.7,000.0,030.0,022.9,15.7,0004.5,0004.61,0007.39,0004.44
2024-01-22 06:28:00,SystemResetWarning,0822.1,4.99,000.00,021.6,020.7,000.0,030.0,022.9,15.7,0004.4,0004.62,0007.36,0004.47
2024-01-22 06:29:00,SystemResetWarning,0822.1,5.00,000.00,021.6,020.7,000.0,030.0,022.9,15.7,0004.2,0004.62,0007.33,0004.45
2024-01-22 06:30:00,SystemResetWarning,0822.1,5.01,000.00,021.6,020.7,000.0,030.0,022.9,15.6,0004.1,0004.63,0007.45,0004.44
2024-01-22 06:31:00,SystemResetWarning,0822.1,5.01,000.00,021.6,020.7,000.0,030.0,022.9,15.5,0004.0,0004.60,0007.41,0004.42
2024-01-22 06:32:00,SystemResetWarning,0822.2,5.00,000.00,021.6,020.7,000.0,030.0,022.9,15.6,0003.8,0004.61,0007.46,0004.41
2024-01-22 06:33:00,SystemResetWarning,0822.2,4.99,000.00,021.6,020.7,000.0,029.9,022.9,15.8,0003.8,0004.62,0007.52,0004.41
2024-01-22 06:34:00,SystemResetWarning,0822.1,4.99,000.00,021.6,020.6,000.0,029.9,022.9,15.7,0003.5,0004.62,0007.54,0004.39
2024-01-22 06:35:00,SystemResetWarning,0822.1,5.01,000.00,021.6,020.6,000.0,029.9,022.9,15.7,0003.3,0004.60,0007.53,0004.37
2024-01-22 06:36:00,SystemResetWarning,0822.1,5.01,000.00,021.6,020.6,000.0,029.9,022.9,15.7,0003.3,0004.61,0007.52,0004.38
2024-01-22 06:37:00,SystemResetWarning,0822.1,4.99,000.00,021.6,020.7,000.0,029.9,022.9,15.7,0003.5,0004.65,0007.54,0004.41
2024-01-22 06:38:00,SystemResetWarning,0822.1,4.99,000.00,021.6,020.7,000.0,030.0,023.0,15.7,0003.6,0004.65,0007.56,0004.41
2024-01-22 06:39:00,SystemResetWarning,0822.1,5.00,000.00,021.6,020.7,000.0,030.0,022.9,15.8,0003.9,0004.66,0007.61,0004.41
2024-01-22 06:40:00,SystemResetWarning,0822.1,5.00,000.00,021.6,020.7,000.0,030.0,022.9,15.7,0003.9,0004.65,0007.62,0004.41
2024-01-22 06:41:00,SystemResetWarning,0822.2,5.00,000.00,021.6,020.7,000.0,029.9,022.9,15.7,0004.1,0004.61,0007.50,0004.36
2024-01-22 06:42:00,SystemResetWarning,0822.1,5.00,000.00,021.5,020.7,000.0,029.9,022.9,15.7,0004.0,0004.58,0007.57,0004.33
2024-01-22 06:43:00,SystemResetWarning,0822.1,5.00,000.00,021.5,020.7,000.0,029.9,022.9,15.7,0003.9,0004.59,0007.58,0004.35
2024-01-22 06:44:00,SystemResetWarning,0822.1,5.00,000.00,021.5,020.7,000.0,029.9,022.9,15.7,0003.6,0004.63,0007.64,0004.39
2024-01-22 06:45:00,SystemResetWarning,0822.1,5.00,000.00,021.5,020.7,000.0,029.9,022.9,15.7,0003.6,0004.69,0008.14,0004.45
2024-01-22 06:46:00,SystemResetWarning,0822.1,5.00,000.00,021.5,020.7,000.0,029.9,022.9,15.7,0003.5,0004.74,0008.41,0004.51
2024-01-22 06:47:00,SystemResetWarning,0822.1,5.00,000.00,021.5,020.7,000.0,029.9,022.9,15.7,0003.5,0004.81,0008.61,0004.57
2024-01-22 06:48:00,SystemResetWarning,0822.1,5.00,000.00,021.5,020.7,000.0,029.9,022.9,15.7,0003.7,0004.82,0008.64,0004.60
2024-01-22 06:49:00,SystemResetWarning,0822.1,5.00,000.00,021.5,020.7,000.0,029.9,022.9,15.7,0003.8,0004.83,0008.66,0004.61
2024-01-22 06:50:00,SystemResetWarning,0822.1,5.01,000.00,021.5,020.7,000.0,029.9,022.9,15.7,0003.3,0004.82,0008.65,0004.60
2024-01-22 06:51:00,SystemResetWarning,0822.2,5.00,000.00,021.5,020.7,000.0,029.9,022.9,15.7,0003.1,0004.80,0008.58,0004.58
2024-01-22 06:52:00,SystemResetWarning,0822.2,5.00,000.00,021.5,020.7,000.0,029.9,022.9,15.7,0002.9,0004.82,0008.65,0004.62
2024-01-22 06:53:00,SystemResetWarning,0822.2,4.99,000.00,021.5,020.7,000.0,029.9,023.0,15.7,0002.9,0004.84,0008.58,0004.64
2024-01-22 06:54:00,SystemResetWarning,0822.2,4.99,000.00,021.5,020.7,000.0,029.9,022.9,15.7,0002.5,0004.77,0008.47,0004.58
2024-01-22 06:55:00,SystemResetWarning,0822.2,5.00,000.00,021.5,020.8,000.0,029.9,022.9,15.7,0002.2,0004.64,0008.27,0004.48
2024-01-22 06:56:00,SystemResetWarning,0822.2,5.00,000.00,021.5,020.7,000.0,029.9,022.9,15.7,0001.8,0004.61,0007.77,0004.45
2024-01-22 06:57:00,SystemResetWarning,0822.2,5.00,000.00,021.5,020.7,000.0,029.9,022.9,15.7,0002.4,0004.62,0007.59,0004.46
2024-01-22 06:58:00,SystemResetWarning,0822.1,5.00,000.00,021.5,020.7,000.0,029.9,022.9,15.7,0002.6,0004.66,0007.53,0004.50
2024-01-22 06:59:00,SystemResetWarning,0822.1,5.00,000.00,021.5,020.7,000.0,029.9,022.9,15.7,0001.9,0004.75,0007.65,0004.58
